When you browse on this site, cookies collect data to enhance your experience and personalize the content and advertising you see.
Visit our Privacy Policy to learn more. By continuing to use the site, you agree to this use of cookies and data.
  • In Hungary
  • List of Countries
  • For 7 days
  • Water Temperature
  • Satellite Maps
  • Weather Map
  • News
  • Weather Widgets
  • user-avatar
    Login

    Hourly Weather Vatican

    Today, 22 January, Tuesday

    Time Temperature Precipitation Wind Pressure Humidity
    00:00 +8°C° 0.2 mm 7 mps 753 mmHg 75%
    01:00 +8°C° 0.2 mm 7 mps 753 mmHg 73%
    02:00 +8°C° 0.9 mm 7 mps 753 mmHg 76%
    03:00 +7°C° 0.9 mm 6 mps 752 mmHg 79%
    04:00 +7°C° 0.9 mm 6 mps 752 mmHg 82%
    05:00 +7°C° 0.4 mm 6 mps 751 mmHg 81%
    06:00 +7°C° 0.4 mm 6 mps 751 mmHg 81%
    07:00 +7°C° 0.4 mm 6 mps 751 mmHg 80%
    08:00 +7°C° 0.8 mm 5 mps 751 mmHg 80%
    09:00 +7°C° 0.8 mm 4 mps 751 mmHg 80%
    10:00 +7°C° 0.8 mm 4 mps 751 mmHg 81%
    11:00 +7°C° 0.8 mm 4 mps 751 mmHg 82%
    12:00 +7°C° 0.8 mm 5 mps 751 mmHg 83%
    13:00 +7°C° 0.8 mm 6 mps 751 mmHg 85%
    14:00 +7°C° 0.7 mm 6 mps 750 mmHg 84%
    15:00 +7°C° 0.7 mm 6 mps 750 mmHg 83%
    16:00 +6°C° 0.7 mm 7 mps 750 mmHg 82%
    17:00 +6°C° 0.1 mm 7 mps 750 mmHg 80%
    18:00 +7°C° 0.1 mm 6 mps 750 mmHg 79%
    19:00 +7°C° 0.1 mm 6 mps 750 mmHg 77%
    20:00 +7°C° 0 mm 6 mps 750 mmHg 76%
    21:00 +7°C° 0 mm 6 mps 750 mmHg 75%
    22:00 +7°C° 0 mm 6 mps 750 mmHg 74%
    23:00 +6°C° 0 mm 4 mps 750 mmHg 73%

    Tomorrow, 23 January, Wednesday

    Time Temperature Precipitation Wind Pressure Humidity
    00:00 +7°C° 0 mm 3 mps 750 mmHg 72%
    01:00 +7°C° 0 mm 2 mps 750 mmHg 72%
    02:00 +7°C° 0 mm 2 mps 750 mmHg 72%
    03:00 +6°C° 0 mm 2 mps 749 mmHg 73%
    04:00 +6°C° 0 mm 2 mps 749 mmHg 74%
    05:00 +5°C° 0.1 mm 3 mps 749 mmHg 74%
    06:00 +5°C° 0.1 mm 3 mps 749 mmHg 75%
    07:00 +5°C° 0.1 mm 4 mps 748 mmHg 75%
    08:00 +6°C° 0.1 mm 4 mps 748 mmHg 72%
    09:00 +7°C° 0.1 mm 4 mps 748 mmHg 70%
    10:00 +7°C° 0.1 mm 4 mps 748 mmHg 67%
    11:00 +8°C° 0.3 mm 4 mps 747 mmHg 65%
    12:00 +9°C° 0.3 mm 5 mps 746 mmHg 63%
    13:00 +9°C° 0.3 mm 5 mps 746 mmHg 60%
    14:00 +9°C° 0.4 mm 5 mps 745 mmHg 63%
    15:00 +9°C° 0.4 mm 5 mps 745 mmHg 65%
    16:00 +8°C° 0.4 mm 5 mps 744 mmHg 68%
    17:00 +8°C° 0.8 mm 5 mps 744 mmHg 69%
    18:00 +8°C° 0.8 mm 4 mps 744 mmHg 70%
    19:00 +7°C° 0.8 mm 4 mps 744 mmHg 71%
    20:00 +7°C° 0.2 mm 5 mps 744 mmHg 72%
    21:00 +7°C° 0.2 mm 5 mps 743 mmHg 73%
    22:00 +7°C° 0.2 mm 6 mps 743 mmHg 74%
    23:00 +7°C° 0 mm 6 mps 743 mmHg 74%

    Day after tomorrow, 24 January, Thursday

    Time Temperature Precipitation Wind Pressure Humidity
    00:00 +6°C° 0 mm 7 mps 742 mmHg 74%
    01:00 +5°C° 0 mm 7 mps 742 mmHg 74%
    02:00 +5°C° 0 mm 7 mps 741 mmHg 73%
    03:00 +5°C° 0 mm 7 mps 741 mmHg 73%
    04:00 +5°C° 0 mm 7 mps 740 mmHg 73%
    05:00 +5°C° 1.5 mm 7 mps 740 mmHg 75%
    06:00 +5°C° 1.5 mm 8 mps 740 mmHg 78%
    07:00 +5°C° 1.5 mm 8 mps 740 mmHg 80%
    08:00 +5°C° 1.2 mm 8 mps 740 mmHg 76%
    09:00 +6°C° 1.2 mm 7 mps 741 mmHg 72%
    10:00 +8°C° 1.2 mm 7 mps 741 mmHg 69%
    11:00 +9°C° 0.1 mm 6 mps 742 mmHg 63%
    12:00 +10°C° 0.1 mm 5 mps 742 mmHg 58%
    13:00 +12°C° 0.1 mm 5 mps 742 mmHg 53%
    14:00 +12°C° 0 mm 5 mps 742 mmHg 51%
    15:00 +12°C° 0 mm 5 mps 742 mmHg 50%
    16:00 +11°C° 0 mm 6 mps 742 mmHg 48%
    17:00 +10°C° 0 mm 6 mps 743 mmHg 51%
    18:00 +9°C° 0 mm 7 mps 743 mmHg 55%
    19:00 +9°C° 0 mm 8 mps 744 mmHg 59%
    20:00 +7°C° 0 mm 8 mps 745 mmHg 59%
    21:00 +7°C° 0 mm 9 mps 745 mmHg 59%
    22:00 +6°C° 0 mm 10 mps 746 mmHg 60%
    23:00 +6°C° 0 mm 9 mps 746 mmHg 60%

    25 January, Friday

    Time Temperature Precipitation Wind Pressure Humidity
    00:00 +6°C° 0 mm 9 mps 747 mmHg 61%
    01:00 +5°C° 0 mm 8 mps 747 mmHg 62%
    02:00 +5°C° 0 mm 8 mps 747 mmHg 61%
    03:00 +5°C° 0 mm 7 mps 747 mmHg 61%
    04:00 +4°C° 0 mm 7 mps 747 mmHg 61%
    05:00 +4°C° 0 mm 7 mps 748 mmHg 62%
    06:00 +4°C° 0 mm 7 mps 748 mmHg 63%
    07:00 +4°C° 0 mm 7 mps 748 mmHg 64%
    08:00 +4°C° 0 mm 7 mps 749 mmHg 62%
    09:00 +5°C° 0 mm 7 mps 749 mmHg 60%
    10:00 +5°C° 0 mm 7 mps 750 mmHg 58%
    11:00 +8°C° 0 mm 7 mps 750 mmHg 55%
    12:00 +9°C° 0 mm 7 mps 750 mmHg 51%
    13:00 +10°C° 0 mm 7 mps 750 mmHg 48%
    14:00 +10°C° 0 mm 7 mps 750 mmHg 48%
    15:00 +10°C° 0 mm 7 mps 750 mmHg 49%
    16:00 +10°C° 0 mm 7 mps 750 mmHg 49%
    17:00 +9°C° 0 mm 8 mps 751 mmHg 51%
    18:00 +6°C° 0 mm 8 mps 751 mmHg 53%
    19:00 +5°C° 0 mm 9 mps 752 mmHg 56%
    20:00 +5°C° 0 mm 8 mps 752 mmHg 56%
    21:00 +5°C° 0 mm 8 mps 752 mmHg 56%
    22:00 +4°C° 0 mm 7 mps 753 mmHg 57%
    23:00 +4°C° 0 mm 7 mps 753 mmHg 57%

    26 January, Saturday

    Time Temperature Precipitation Wind Pressure Humidity
    00:00 +4°C° 0 mm 7 mps 753 mmHg 57%
    01:00 +3°C° 0 mm 7 mps 753 mmHg 57%
    02:00 +3°C° 0 mm 7 mps 753 mmHg 58%
    03:00 +3°C° 0 mm 7 mps 753 mmHg 58%
    04:00 +3°C° 0 mm 7 mps 753 mmHg 59%
    05:00 +2°C° 0 mm 6 mps 753 mmHg 58%
    06:00 +2°C° 0 mm 6 mps 754 mmHg 57%
    07:00 +2°C° 0 mm 6 mps 754 mmHg 56%
    08:00 +2°C° 0 mm 5 mps 754 mmHg 53%
    09:00 +4°C° 0 mm 4 mps 754 mmHg 50%
    10:00 +5°C° 0 mm 4 mps 754 mmHg 48%
    11:00 +7°C° 0 mm 3 mps 754 mmHg 45%
    12:00 +8°C° 0 mm 3 mps 754 mmHg 42%
    13:00 +8°C° 0 mm 2 mps 754 mmHg 39%
    14:00 +9°C° 0 mm 2 mps 753 mmHg 40%
    15:00 +9°C° 0 mm 3 mps 753 mmHg 40%
    16:00 +8°C° 0 mm 4 mps 753 mmHg 41%
    17:00 +8°C° 0 mm 3 mps 753 mmHg 43%
    18:00 +8°C° 0 mm 3 mps 753 mmHg 45%
    19:00 +7°C° 0 mm 3 mps 753 mmHg 46%
    20:00 +7°C° 0 mm 2 mps 753 mmHg 48%
    21:00 +7°C° 0 mm 2 mps 753 mmHg 50%
    22:00 +7°C° 0 mm 1 mps 753 mmHg 52%
    23:00 +6°C° 0 mm 2 mps 752 mmHg 55%

    27 January, Sunday

    Time Temperature Precipitation Wind Pressure Humidity
    00:00 +6°C° 0 mm 2 mps 752 mmHg 57%
    01:00 +5°C° 0 mm 3 mps 752 mmHg 60%
    02:00 +6°C° 0 mm 4 mps 751 mmHg 60%
    03:00 +6°C° 0 mm 5 mps 750 mmHg 61%
    04:00 +5°C° 0 mm 7 mps 750 mmHg 62%
    05:00 +5°C° 0.5 mm 6 mps 749 mmHg 66%
    06:00 +5°C° 0.5 mm 6 mps 749 mmHg 71%
    07:00 +5°C° 0.5 mm 6 mps 748 mmHg 76%
    08:00 +7°C° 0.7 mm 5 mps 748 mmHg 78%
    09:00 +7°C° 0.7 mm 5 mps 747 mmHg 80%
    10:00 +7°C° 0.7 mm 5 mps 747 mmHg 83%
    11:00 +7°C° 1.9 mm 5 mps 747 mmHg 83%
    12:00 +7°C° 1.9 mm 5 mps 746 mmHg 84%
    13:00 +7°C° 1.9 mm 5 mps 745 mmHg 84%
    14:00 +8°C° 1.2 mm 6 mps 745 mmHg 78%
    15:00 +7°C° 1.2 mm 8 mps 745 mmHg 72%
    16:00 +8°C° 1.2 mm 9 mps 745 mmHg 66%
    17:00 +7°C° 0.3 mm 9 mps 745 mmHg 65%
    18:00 +7°C° 0.3 mm 9 mps 745 mmHg 65%
    19:00 +7°C° 0.3 mm 9 mps 745 mmHg 64%
    20:00 +7°C° 0.4 mm 9 mps 745 mmHg 65%
    21:00 +7°C° 0.4 mm 10 mps 745 mmHg 65%
    22:00 +7°C° 0.4 mm 11 mps 746 mmHg 66%
    23:00 +7°C° 0.4 mm 10 mps 745 mmHg 67%
    Show more